Temperature
21 20 20 20 20 19 19 19 19 19 19 19 19 19 19 19 19 19 19 19 19 19 19 19 19 19 19 19 19 19 19 19 19 19 19 18 18 18 18 18 18 18 18
21 20 20 20 20 19 19 19 19 19 19 19 19 19 19 19 19 19 19 19 19 19 19 19 19 19 19 19 19 19 19 19 19 19 19 18 18 18 18 18 18 18 18
20 20 20 20 20 19 19 19 19 19 19 19 19 19 19 19 19 19 19 19 19 19 19 19 19 19 19 19 19 19 19 19 19 18 18 18 18 18 18 18 18 18 18
20 20 20 20 20 19 19 19 19 19 19 19 19 19 19 19 19 19 19 19 19 19 19 19 19 19 19 19 19 19 19 19 18 18 18 18 18 18 18 18 18 18 18
20 20 20 20 20 19 19 19 19 19 19 19 19 19 19 19 19 19 19 19 19 19 19 19 19 19 19 19 19 19 19 19 18 18 18 18 18 18 18 18 18 18 18
20 20 19 20 19 19 19 20 19 19 19 19 19 19 19 19 19 19 19 19 19 19 19 19 19 19 19 19 19 19 19 18 18 18 18 18 18 18 18 18 18 18 18
20 20 19 20 20 19 19 19 19 19 19 19 19 19 19 19 19 19 19 19 19 19 19 19 19 19 19 19 19 19 18 18 18 18 18 18 18 18 18 18 18 18 18
20 20 19 20 20 20 19 19 19 19 19 19 19 19 19 19 19 19 19 19 19 19 19 19 19 19 19 19 19 19 18 18 18 18 18 18 18 18 18 18 18 18 18
20 20 20 20 19 19 19 19 19 19 19 19 19 19 19 19 19 19 19 19 19 19 19 19 19 19 19 19 19 19 18 18 18 18 18 18 18 18 18 18 18 18 18
20 20 20 20 19 19 19 19 19 19 19 19 19 19 19 19 19 19 19 19 19 19 19 19 19 19 19 19 18 18 18 18 18 19 18 18 18 18 18 18 18 18 18
20 20 20 20 20 20 19 19 19 19 19 19 19 19 19 19 19 18 19 19 19 19 19 19 19 19 19 19 18 18 18 18 18 18 18 18 18 18 18 18 18 18 18
20 20 20 20 19 20 19 19 19 19 19 19 18 19 19 19 19 18 19 19 18 18 18 18 18 19 18 18 18 18 18 18 18 18 18 18 18 18 18 18 18 18 18
20 20 20 20 19 19 19 19 19 19 19 19 18 18 19 18 18 18 18 18 18 18 18 18 18 18 18 18 18 18 18 18 18 18 18 18 18 18 18 18 18 18 18
20 20 20 20 19 19 19 19 19 19 19 19 18 18 18 18 18 18 18 18 18 18 18 18 18 18 18 18 18 18 18 18 18 18 18 18 18 18 18 18 18 18 17
20 20 20 19 19 19 19 19 19 19 19 19 18 18 18 18 18 18 18 18 18 18 18 18 18 18 18 18 18 18 18 18 18 18 18 18 18 18 18 18 18 18 17
20 20 20 19 19 19 19 19 19 19 19 19 18 18 18 18 18 18 18 18 18 18 18 18 18 18 18 18 17 17 18 18 17 17 18 18 18 18 18 18 18 18 18
20 20 19 19 19 19 19 19 19 19 19 18 18 18 18 18 18 18 18 18 18 18 18 18 18 18 17 17 17 17 17 17 17 17 17 18 18 18 18 18 18 18 17
20 20 19 20 19 19 19 19 19 19 19 18 18 18 18 18 18 18 18 18 18 18 18 18 18 18 17 17 17 17 17 17 17 17 17 17 18 18 18 18 18 18 17
20 20 20 20 19 19 19 19 19 19 18 18 18 18 18 18 18 18 18 18 18 18 18 18 17 17 17 17 17 17 17 17 17 17 17 17 17 17 17 18 18 18 17
20 20 20 19 19 19 19 19 18 18 18 18 18 18 18 18 18 18 18 18 18 18 18 18 17 17 17 17 18 17 17 18 18 18 17 17 17 17 17 17 17 17 17
20 20 20 19 19 19 19 19 18 18 18 18 18 18 18 18 18 18 18 18 18 18 18 18 17 17 17 17 18 18 18 18 18 18 18 18 17 17 17 17 17 17 17
20 20 20 20 19 19 19 19 18 18 18 18 18 18 18 18 18 18 18 18 18 18 18 17 17 17 17 17 18 18 19 18 18 18 17 17 17 17 17 17 17 17 17
20 20 20 20 20 19 19 19 18 18 18 18 18 18 18 18 18 18 18 17 17 17 17 17 17 17 17 17 18 18 19 19 18 18 17 17 17 17 17 17 17 17 17
21 20 20 20 20 20 19 19 19 19 18 18 18 18 18 18 18 18 17 17 17 17 17 17 17 17 17 18 18 18 18 18 18 18 18 18 17 17 17 17 17 17 16
21 20 20 20 20 19 19 19 19 18 18 18 18 18 17 17 17 17 17 17 17 17 17 17 17 17 17 17 17 18 18 18 18 18 18 18 17 17 17 17 17 17 16
21 20 20 19 19 19 19 18 18 18 18 18 18 17 17 17 17 17 17 17 17 17 17 17 17 17 17 17 17 17 17 18 18 18 18 17 17 17 17 17 17 16 16
Wind_Speed
2 3 4 2 4 5 5 4 4 3 4 4 4 4 3 4 5 8 9 9 9 10 10 10 11 11 11 11 11 11 12 12 13 12 12 12 12 12 11 11 11 10 10
3 4 4 3 4 5 5 4 3 3 3 3 4 4 3 3 5 8 9 9 9 9 10 10 10 11 11 11 11 11 12 12 12 12 13 13 13 12 11 10 7 8 11
4 5 5 5 5 5 4 4 3 3 3 3 3 3 3 3 5 7 8 8 9 9 10 10 10 11 11 11 11 11 11 11 11 12 13 12 13 13 11 10 9 9 10
5 5 6 7 5 4 4 3 3 3 3 3 3 3 3 4 5 7 8 8 8 9 9 9 9 10 11 11 11 10 10 10 11 13 11 10 11 13 12 11 10 10 10
6 6 8 7 5 5 4 3 3 3 3 3 3 3 4 4 5 6 7 7 7 7 7 8 8 9 10 11 11 10 10 10 11 11 10 9 8 12 12 11 10 10 11
6 6 9 6 5 5 4 4 3 3 3 4 4 3 4 4 4 5 6 6 6 6 6 7 8 9 9 10 10 11 10 11 11 8 8 9 9 12 12 11 11 11 10
6 6 8 7 6 5 5 5 5 4 5 5 4 3 3 4 4 5 6 6 6 6 5 6 6 8 9 10 10 10 10 10 8 7 6 7 8 11 11 11 11 11 10
5 6 8 7 6 5 5 5 5 6 6 5 4 4 3 3 4 5 5 5 5 5 4 5 6 7 8 9 10 10 10 9 8 7 6 6 9 10 10 10 11 10 9
6 6 6 5 6 5 5 5 5 5 5 5 5 4 3 3 5 6 5 5 5 5 4 5 6 7 8 9 10 9 8 8 6 6 7 6 11 11 10 10 10 10 9
6 6 5 5 5 4 6 7 6 5 5 5 5 5 4 4 6 7 6 6 5 4 4 6 7 7 8 9 9 8 8 8 6 6 6 8 11 10 10 9 9 9 9
6 6 5 5 5 5 5 6 5 6 6 5 5 5 3 4 5 7 7 7 6 5 5 7 8 8 8 10 10 9 8 5 6 5 6 10 11 10 9 9 9 9 9
7 6 6 5 5 5 5 5 4 4 6 5 6 5 5 6 5 6 8 7 6 6 7 8 7 8 6 6 9 8 4 5 5 5 7 12 10 9 8 8 8 8 8
7 6 6 6 5 5 4 4 4 3 4 5 6 5 5 4 4 4 4 5 5 5 4 6 5 5 5 4 3 4 4 4 4 5 8 12 10 8 8 7 7 7 7
7 6 6 6 5 5 4 4 4 4 4 4 5 6 5 4 4 5 4 4 3 3 3 3 4 5 5 5 4 4 5 4 4 5 8 11 9 8 7 7 7 7 7
5 5 5 5 5 4 4 3 4 4 4 4 4 5 5 4 4 5 4 4 4 4 4 4 5 6 5 5 5 5 5 4 4 5 7 10 8 7 7 6 6 6 7
4 4 5 4 5 4 3 3 3 3 3 4 4 5 5 4 4 4 4 4 4 5 5 5 6 5 5 5 5 5 4 4 4 3 5 8 9 7 6 5 6 6 6
4 4 4 4 4 4 4 3 3 3 4 4 4 5 5 5 4 3 4 4 5 5 6 5 6 5 5 5 5 4 3 3 3 3 3 4 6 8 7 5 5 5 5
4 4 4 4 5 4 4 3 3 4 4 4 4 5 5 5 4 3 4 4 5 4 4 4 4 5 4 4 3 3 3 3 3 3 3 3 3 5 7 8 6 5 5
4 4 4 4 4 3 4 4 4 4 4 4 4 4 4 4 4 3 4 4 4 3 3 3 4 4 4 3 3 3 2 2 2 3 3 3 4 4 5 9 8 6 5
4 4 3 3 3 2 3 3 3 4 4 3 4 4 4 4 4 4 4 4 3 4 4 4 4 3 2 2 2 3 2 2 2 3 2 3 3 4 4 4 6 7 6
4 4 3 3 3 2 2 2 2 3 3 3 4 4 4 4 4 4 4 4 3 4 4 4 3 3 2 2 2 2 3 3 3 2 2 1 2 3 3 3 2 3 5
5 4 4 4 3 3 2 2 2 2 2 3 3 4 3 4 4 4 4 3 3 3 3 3 2 1 2 1 0 1 2 2 2 1 2 2 1 2 3 3 3 2 2
5 5 4 4 4 3 3 3 3 3 2 3 3 3 3 3 3 4 3 3 2 2 3 2 1 1 1 1 1 1 0 1 1 2 1 1 1 1 2 2 3 2 2
6 5 5 5 4 4 4 3 3 3 3 2 2 3 3 3 3 3 2 2 1 1 2 1 1 1 1 1 0 1 2 1 1 1 1 2 1 1 1 1 1 2 2
6 6 6 5 4 4 3 4 3 3 3 3 2 3 2 3 3 3 2 2 1 1 1 1 0 1 1 1 1 1 0 1 2 2 1 0 0 0 1 1 1 1 2
7 6 6 6 5 4 4 4 3 3 3 3 2 2 2 2 2 3 3 2 1 1 1 0 0 1 1 1 2 2 1 1 1 1 2 2 1 0 0 1 1 1 1
Wind_Direction
54 72 100 170 168 158 153 148 149 149 157 163 157 159 163 166 164 163 161 161 163 167 169 171 169 168 167 167 167 168 167 168 169 164 165 165 164 163 165 170 177 166 151
55 73 90 120 143 147 145 144 132 129 139 152 153 160 154 149 154 160 160 161 164 168 169 167 167 168 169 170 172 173 174 174 172 171 171 172 169 169 172 178 184 151 153
71 82 98 101 119 128 129 125 121 121 131 142 146 152 142 137 152 158 158 161 166 169 169 169 170 171 171 171 173 174 173 173 172 176 182 179 169 170 173 173 166 161 163
72 78 83 93 104 106 107 109 119 121 134 143 143 148 143 140 148 157 160 165 168 169 170 174 174 174 175 175 176 175 174 177 182 191 190 180 173 165 173 174 172 169 168
78 77 86 87 82 81 87 94 111 127 145 144 132 135 139 139 149 157 161 162 164 166 168 171 176 178 178 178 178 177 178 183 189 200 184 177 170 158 172 177 177 174 172
83 79 86 79 69 72 82 87 88 100 125 131 125 122 125 126 136 146 152 156 160 164 168 175 182 184 182 181 178 178 182 189 194 186 174 173 166 159 172 179 180 175 171
76 76 86 79 66 67 78 75 72 80 100 106 109 105 110 118 130 141 147 152 158 159 163 173 181 183 182 182 181 181 183 191 186 171 168 164 156 154 166 176 178 173 173
74 75 84 93 75 76 80 72 68 78 90 90 85 85 100 113 122 131 136 140 144 145 153 171 173 171 177 177 172 172 176 193 176 166 165 154 145 153 161 164 167 168 171
73 71 70 85 92 107 104 83 75 76 85 80 74 73 82 109 128 131 131 134 136 139 149 154 155 156 160 162 161 161 171 194 181 162 164 152 145 157 162 166 169 171 171
74 72 70 69 68 74 96 94 83 83 84 79 77 69 64 109 136 137 133 123 123 130 137 132 138 143 148 149 152 164 179 196 170 157 153 140 144 157 165 168 169 171 171
77 76 75 75 68 61 70 87 93 97 91 90 89 76 58 72 96 118 98 104 112 116 119 122 128 134 140 148 155 171 186 171 148 141 138 129 143 154 162 168 171 174 177
84 80 79 74 68 63 68 77 73 78 78 66 61 55 59 63 74 86 106 111 118 118 124 124 132 143 155 139 153 177 167 154 144 140 129 130 140 151 158 163 169 174 177
90 86 84 79 75 68 68 70 68 69 72 70 63 53 54 54 67 74 86 108 115 122 113 121 139 121 119 116 122 133 135 127 126 125 125 127 136 147 156 159 163 170 170
85 85 80 79 77 66 59 61 59 62 64 57 55 42 49 48 46 48 54 60 70 84 84 95 110 104 100 105 109 110 116 122 120 115 117 124 132 145 152 157 162 171 171
91 91 85 83 81 80 75 52 59 56 58 70 59 51 45 51 49 50 51 47 56 67 78 90 97 99 98 99 93 96 100 103 112 116 120 127 134 143 154 160 168 168 170
100 96 94 91 87 84 83 71 63 65 70 66 67 60 52 54 53 55 59 51 61 71 71 79 85 91 87 87 87 85 90 99 103 113 123 134 141 143 151 165 171 171 173
103 97 94 95 86 79 81 83 80 74 76 71 70 69 60 59 59 65 67 68 69 78 81 82 85 89 93 91 85 82 84 88 111 118 132 139 144 148 149 156 163 167 170
109 105 100 93 89 87 82 78 79 76 80 80 76 76 69 66 66 63 73 75 79 84 85 84 89 90 87 82 80 78 84 100 114 129 133 143 143 140 144 145 146 155 161
120 117 110 94 89 88 95 98 89 84 77 77 75 74 74 74 72 71 72 76 86 84 85 83 81 80 85 81 89 94 93 98 113 117 122 132 132 138 137 138 146 142 146
131 126 121 119 106 106 110 104 96 93 89 82 79 72 73 81 79 76 83 79 83 86 85 83 84 79 78 74 79 88 93 103 105 105 121 120 127 136 134 134 147 148 147
150 144 143 135 124 125 120 117 109 100 96 91 81 73 77 75 75 74 78 79 78 82 81 91 93 103 98 91 108 108 108 111 104 106 105 107 122 132 132 134 144 142 149
164 160 158 154 147 148 128 126 118 103 102 94 81 79 79 78 77 85 79 91 87 96 99 95 93 90 109 119 96 130 143 138 140 119 145 157 141 150 148 145 136 152 160
171 169 158 152 149 146 142 145 134 132 131 110 98 90 73 71 70 76 85 82 91 107 108 116 129 166 153 143 349 330 326 108 137 136 130 131 151 157 160 137 145 152 156
173 166 160 157 151 147 149 138 140 131 115 102 105 87 81 72 68 78 83 91 100 99 114 169 133 225 228 219 173 322 330 331 274 171 160 133 143 159 147 140 131 134 148
170 165 158 156 150 149 151 143 153 138 125 118 107 97 88 83 76 71 74 83 91 95 83 31 61 261 241 274 280 266 230 225 265 254 216 169 137 159 160 171 165 148 143
166 165 160 157 154 156 159 151 152 137 126 120 117 111 114 98 88 73 75 71 72 55 47 339 249 221 280 312 299 279 258 248 246 243 226 224 236 232 200 196 224 182 144
Height
1493 1491 1487 1485 1486 1487 1489 1490 1490 1491 1491 1491 1492 1492 1492 1492 1492 1493 1495 1497 1498 1500 1501 1503 1504 1506 1507 1509 1511 1513 1514 1516 1518 1520 1521 1523 1525 1527 1528 1530 1531 1533 1533
1493 1490 1485 1483 1483 1486 1488 1489 1490 1490 1491 1491 1491 1492 1492 1491 1491 1492 1494 1496 1498 1499 1501 1503 1504 1506 1507 1509 1510 1512 1514 1516 1518 1519 1521 1523 1525 1526 1528 1529 1531 1533 1533
1493 1490 1485 1483 1484 1486 1488 1489 1490 1490 1490 1491 1491 1491 1491 1491 1491 1493 1494 1496 1497 1499 1501 1502 1503 1505 1507 1508 1510 1511 1513 1515 1517 1519 1521 1524 1525 1526 1528 1529 1531 1532 1533
1494 1492 1488 1485 1486 1488 1489 1489 1489 1489 1490 1490 1491 1491 1491 1491 1492 1493 1494 1496 1497 1499 1500 1501 1503 1504 1506 1507 1509 1510 1512 1514 1516 1518 1521 1524 1525 1526 1527 1529 1530 1532 1533
1496 1494 1491 1489 1489 1489 1489 1489 1489 1488 1488 1489 1490 1491 1491 1491 1492 1493 1494 1495 1497 1498 1499 1500 1501 1502 1504 1506 1508 1509 1511 1513 1515 1517 1520 1523 1525 1525 1527 1528 1530 1531 1533
1498 1497 1494 1492 1491 1490 1490 1489 1488 1487 1486 1488 1490 1491 1491 1492 1492 1493 1494 1495 1496 1497 1498 1499 1499 1500 1502 1504 1506 1508 1510 1512 1514 1517 1519 1522 1524 1525 1526 1527 1529 1531 1532
1500 1499 1496 1494 1492 1491 1491 1490 1488 1487 1487 1488 1490 1491 1492 1492 1492 1493 1493 1495 1496 1496 1497 1496 1497 1498 1500 1502 1505 1507 1509 1511 1515 1517 1519 1521 1523 1524 1525 1526 1528 1530 1532
1501 1500 1498 1495 1494 1493 1492 1492 1490 1489 1490 1491 1492 1492 1492 1491 1492 1493 1493 1494 1495 1495 1495 1494 1495 1496 1498 1501 1503 1506 1508 1511 1515 1517 1519 1521 1522 1523 1525 1526 1528 1530 1532
1502 1502 1501 1499 1497 1496 1495 1494 1494 1493 1493 1493 1493 1493 1491 1490 1491 1492 1494 1495 1495 1495 1494 1493 1494 1495 1497 1500 1503 1505 1508 1511 1515 1516 1519 1521 1522 1523 1525 1526 1528 1530 1532
1503 1503 1502 1501 1500 1499 1499 1497 1497 1497 1496 1496 1495 1493 1491 1489 1489 1493 1495 1495 1495 1495 1494 1493 1494 1495 1497 1500 1503 1506 1509 1512 1515 1517 1519 1520 1522 1523 1525 1527 1528 1530 1531
1505 1504 1504 1504 1503 1502 1502 1501 1500 1500 1499 1499 1498 1495 1493 1491 1492 1495 1496 1496 1496 1495 1495 1494 1495 1496 1498 1501 1503 1507 1510 1512 1515 1517 1519 1520 1522 1523 1525 1526 1528 1530 1531
1506 1506 1506 1506 1505 1504 1504 1504 1504 1503 1502 1502 1501 1499 1498 1496 1496 1497 1498 1497 1497 1496 1496 1496 1496 1498 1500 1503 1505 1507 1511 1513 1515 1517 1519 1520 1522 1523 1525 1526 1527 1529 1530
1508 1508 1508 1508 1507 1507 1506 1506 1506 1505 1505 1505 1504 1503 1502 1501 1501 1501 1501 1500 1499 1498 1498 1498 1499 1500 1502 1504 1506 1508 1511 1513 1516 1518 1519 1520 1521 1523 1524 1526 1527 1528 1530
1511 1511 1511 1510 1509 1509 1508 1508 1507 1507 1507 1507 1506 1506 1505 1504 1504 1503 1503 1502 1501 1500 1498 1498 1500 1502 1504 1506 1507 1509 1511 1514 1516 1518 1519 1520 1521 1523 1524 1525 1527 1528 1529
1512 1513 1512 1512 1511 1510 1510 1510 1510 1510 1510 1510 1509 1509 1508 1508 1507 1506 1505 1505 1503 1502 1500 1500 1501 1503 1505 1507 1509 1510 1512 1514 1517 1518 1519 1520 1521 1523 1524 1525 1526 1527 1528
1514 1514 1514 1513 1513 1512 1512 1512 1512 1512 1512 1512 1512 1511 1510 1510 1509 1509 1508 1507 1506 1505 1504 1503 1504 1506 1508 1509 1511 1512 1514 1516 1517 1518 1520 1520 1521 1523 1524 1525 1525 1526 1527
1515 1515 1515 1515 1514 1514 1514 1514 1514 1515 1515 1514 1514 1513 1513 1512 1512 1511 1511 1510 1509 1508 1508 1508 1508 1509 1511 1512 1513 1514 1515 1517 1518 1519 1520 1521 1522 1523 1523 1524 1525 1526 1527
1515 1515 1515 1516 1515 1515 1515 1515 1516 1516 1516 1516 1515 1515 1515 1514 1514 1513 1513 1512 1512 1511 1511 1511 1512 1513 1513 1515 1516 1517 1517 1518 1519 1520 1521 1522 1523 1524 1524 1524 1525 1526 1526
1516 1516 1516 1516 1516 1516 1516 1516 1517 1517 1517 1517 1517 1517 1516 1516 1515 1515 1515 1514 1514 1514 1514 1514 1515 1515 1516 1517 1518 1518 1519 1520 1520 1521 1521 1522 1523 1524 1525 1524 1524 1525 1526
1516 1516 1516 1516 1516 1517 1517 1517 1518 1518 1518 1518 1518 1518 1517 1517 1517 1516 1516 1516 1516 1516 1516 1516 1516 1517 1518 1519 1520 1520 1520 1521 1521 1522 1522 1523 1523 1524 1525 1525 1525 1525 1525
1516 1516 1517 1517 1517 1517 1517 1518 1518 1519 1519 1519 1519 1519 1519 1518 1518 1518 1518 1517 1517 1518 1518 1518 1518 1519 1520 1520 1521 1521 1522 1522 1522 1522 1523 1523 1524 1524 1524 1524 1524 1525 1525
1516 1516 1517 1517 1517 1517 1517 1518 1519 1519 1520 1520 1520 1520 1520 1520 1519 1519 1518 1519 1519 1519 1519 1519 1520 1520 1521 1521 1522 1522 1522 1524 1522 1523 1523 1523 1524 1524 1524 1524 1524 1523 1524
1516 1516 1517 1517 1517 1518 1518 1519 1519 1519 1520 1521 1521 1521 1521 1520 1520 1520 1519 1520 1519 1520 1520 1520 1520 1520 1521 1522 1522 1522 1522 1522 1523 1523 1523 1523 1523 1523 1523 1523 1523 1522 1523
1515 1516 1516 1517 1517 1517 1518 1519 1519 1520 1521 1521 1521 1522 1521 1521 1521 1521 1520 1520 1520 1520 1520 1520 1520 1520 1520 1521 1521 1521 1522 1522 1522 1522 1523 1522 1522 1522 1522 1523 1522 1522 1521
1514 1515 1516 1516 1517 1517 1518 1518 1519 1520 1521 1522 1522 1522 1522 1522 1521 1521 1520 1520 1520 1520 1520 1519 1519 1519 1520 1521 1521 1521 1521 1521 1521 1521 1521 1522 1522 1521 1521 1521 1521 1521 1520
1513 1514 1515 1515 1516 1517 1518 1518 1519 1520 1520 1521 1522 1522 1522 1522 1522 1521 1521 1520 1520 1520 1519 1519 1519 1519 1519 1519 1519 1520 1520 1520 1520 1520 1520 1520 1520 1520 1520 1519 1519 1519 1519